CW4488 Weather Reports


time (UTC)temp
F
wind
direction
speed
knots
gust
knots
rain 1hr
in
rain 24hr
in
rain mn
in
humidity
%
barometer
mb
20260507112642 54 39 0.0 1.7 0.00 0.00 0.00 88 1015.2
20260507112147 54 39 0.0 2.6 0.00 0.00 0.00 88 1015.2
20260507111154 54 51 0.0 1.7 0.00 0.00 0.00 88 1015.3
20260507110155 54 88 0.0 0.9 0.00 0.00 0.00 88 1015.3
20260507105651 54 88 0.0 1.7 0.00 0.00 0.00 88 1015.3
20260507105144 54 88 0.9 1.7 0.00 0.00 0.00 88 1015.3
20260507104638 54 88 0.0 1.7 0.00 0.00 0.00 88 1015.3
20260507104129 54 118 0.9 1.7 0.00 0.00 0.00 88 1015.5
20260507103614 54 119 0.0 1.7 0.00 0.00 0.00 88 1015.5
20260507103123 54 119 0.0 1.7 0.00 0.00 0.00 88 1015.5
20260507102616 54 88 0.0 1.7 0.00 0.00 0.00 88 1015.5
20260507102122 54 53 0.0 0.0 0.00 0.00 0.00 88 1015.5
20260507101616 54 53 0.0 0.9 0.00 0.00 0.00 88 1015.5
20260507101107 54 53 0.0 1.7 0.00 0.00 0.00 88 1015.5
20260507100616 54 53 0.0 2.6 0.00 0.00 0.00 89 1015.5
20260507100112 54 34 0.9 2.6 0.00 0.00 0.00 89 1015.5
20260507095605 54 13 0.9 2.6 0.00 0.00 0.00 89 1015.6
20260507095058 54 355 0.0 1.7 0.00 0.00 0.00 89 1015.6
20260507094611 54 355 0.0 3.5 0.00 0.00 0.00 89 1015.6
20260507094053 54 355 1.7 3.5 0.00 0.00 0.00 89 1015.7
20260507092157 54 10 0.0 1.7 0.00 0.00 0.00 88 1015.8
20260507091653 55 10 0.0 1.7 0.00 0.00 0.00 88 1015.8
20260507091152 55 10 0.0 2.6 0.00 0.00 0.00 88 1016.1
20260507090637 55 5 0.0 2.6 0.00 0.00 0.00 88 1016.1
20260507090129 55 333 0.0 1.7 0.00 0.00 0.00 88 1016.1
20260507085635 55 310 0.0 1.7 0.00 0.00 0.00 88 1016.1
20260507085134 55 310 0.0 1.7 0.00 0.00 0.00 88 1016.1
20260507084618 55 236 0.0 1.7 0.00 0.00 0.00 89 1016.1
20260507084125 55 179 0.0 0.0 0.00 0.00 0.00 88 1016.1
20260507083632 55 179 0.0 0.9 0.00 0.00 0.00 88 1016.1
20260507083115 56 179 0.0 0.9 0.00 0.00 0.00 88 1016.1
20260507082617 56 179 0.0 1.7 0.00 0.00 0.00 88 1016.2
20260507082108 56 179 0.9 1.7 0.00 0.00 0.00 88 1016.2
20260507081601 56 179 0.9 1.7 0.00 0.00 0.00 88 1016.2
20260507081113 56 116 0.0 0.0 0.00 0.00 0.00 87 1016.2
20260507080618 56 116 0.0 0.9 0.00 0.00 0.00 87 1016.2
20260507080119 56 116 0.0 1.7 0.00 0.00 0.00 87 1016.2
20260507075624 56 116 0.9 1.7 0.00 0.00 0.00 87 1016.2
20260507075115 56 108 0.9 1.7 0.00 0.00 0.00 87 1016.2
20260507074611 56 108 0.0 1.7 0.00 0.00 0.00 87 1016.2
20260507074057 56 108 0.9 1.7 0.00 0.00 0.00 86 1016.2
20260507073609 56 108 0.9 1.7 0.00 0.00 0.00 86 1016.2
20260507073110 56 88 0.9 1.7 0.00 0.00 0.00 86 1016.2
20260507072612 56 77 0.0 2.6 0.00 0.00 0.00 86 1016.2
20260507072112 56 77 0.9 2.6 0.00 0.00 0.00 86 1016.2
20260507071614 56 99 0.9 3.5 0.00 0.00 0.00 86 1016.2
20260507071126 56 80 0.9 2.6 0.00 0.00 0.00 85 1016.4
20260507070622 56 78 0.0 2.6 0.00 0.00 0.00 85 1016.4
20260507070126 56 56 0.9 3.5 0.00 0.00 0.00 85 1016.4
20260507065642 56 72 0.9 2.6 0.00 0.00 0.00 85 1016.4
20260507065147 57 81 0.0 1.7 0.00 0.00 0.00 85 1016.4
20260507063658 57 94 0.9 2.6 0.00 0.00 0.00 85 1016.5
20260507063143 57 105 1.7 2.6 0.00 0.00 0.00 85 1016.5
20260507062637 57 116 0.9 2.6 0.00 0.00 0.00 85 1016.5
20260507062119 57 101 0.9 2.6 0.00 0.00 0.00 85 1016.5
20260507061616 57 94 0.9 2.6 0.00 0.00 0.00 85 1016.5
20260507061118 57 99 1.7 2.6 0.00 0.00 0.00 85 1016.6
20260507060623 58 96 1.7 2.6 0.00 0.00 0.00 84 1016.6
20260507060124 58 105 0.9 2.6 0.00 0.00 0.00 84 1016.6
20260507055627 58 128 0.9 1.7 0.00 0.00 0.00 84 1016.6
20260507055141 58 131 0.9 1.7 0.00 0.00 0.00 84 1016.6
20260507054656 58 203 0.0 1.7 0.00 0.00 0.00 84 1016.6
20260507054138 58 205 0.0 2.6 0.00 0.00 0.00 84 1016.6
20260507053633 58 205 0.9 2.6 0.00 0.00 0.00 85 1016.6
20260507053115 58 204 0.0 1.7 0.00 0.00 0.00 84 1016.6
20260507052619 58 204 0.9 1.7 0.00 0.00 0.00 84 1016.5
20260507052115 58 215 0.0 2.6 0.00 0.00 0.00 84 1016.5
20260507051608 58 215 0.9 2.6 0.00 0.00 0.00 84 1016.5
20260507051117 58 215 0.9 1.7 0.00 0.00 0.00 84 1016.4
20260507050612 58 215 0.0 4.3 0.00 0.00 0.00 84 1016.4
20260507050112 58 212 2.6 4.3 0.00 0.00 0.00 83 1016.4
20260507045610 58 213 1.7 3.5 0.00 0.00 0.00 83 1016.3
20260507045105 58 216 0.9 2.6 0.00 0.00 0.00 83 1016.3
20260507044613 58 215 0.9 2.6 0.00 0.00 0.00 83 1016.3
20260507044107 59 216 0.9 2.6 0.00 0.00 0.00 83 1016.3
20260507043612 59 216 0.9 3.5 0.00 0.00 0.00 83 1016.3
20260507043106 59 209 0.9 3.5 0.00 0.00 0.00 82 1016.3
20260507042605 59 207 0.9 2.6 0.00 0.00 0.00 82 1016.2
20260507042107 59 180 0.9 2.6 0.00 0.00 0.00 82 1016.2
20260507041610 59 153 0.9 2.6 0.00 0.00 0.00 82 1016.2
20260507041114 59 179 0.0 3.5 0.00 0.00 0.00 82 1016.1
20260507040613 59 186 0.0 3.5 0.00 0.00 0.00 82 1016.1
20260507040112 59 192 0.9 2.6 0.00 0.00 0.00 82 1016.1
20260507035615 59 235 0.9 3.5 0.00 0.00 0.00 82 1015.9
20260507035109 59 206 1.7 3.5 0.00 0.00 0.00 82 1015.9
20260507034607 59 229 1.7 4.3 0.00 0.00 0.00 81 1015.9
20260507034104 59 234 1.7 4.3 0.00 0.00 0.00 81 1015.8
20260507033610 59 225 1.7 4.3 0.00 0.00 0.00 81 1015.8
20260507033116 59 238 1.7 4.3 0.00 0.00 0.00 81 1015.8
20260507032614 60 205 1.7 5.2 0.00 0.00 0.00 80 1015.6
20260507032105 60 250 2.6 5.2 0.00 0.00 0.00 80 1015.6
20260507031613 60 237 1.7 4.3 0.00 0.00 0.00 80 1015.6
20260507031112 60 277 1.7 5.2 0.00 0.00 0.00 80 1015.4
20260507030617 60 238 2.6 5.2 0.00 0.00 0.00 80 1015.4
20260507030107 60 251 1.7 7.0 0.00 0.00 0.00 80 1015.4
20260507025611 60 288 3.5 7.0 0.00 0.00 0.00 79 1015.4
20260507025104 60 240 3.5 6.1 0.00 0.00 0.00 79 1015.4
20260507024603 61 286 1.7 5.2 0.00 0.00 0.00 79 1015.4
20260507024111 61 238 1.7 6.1 0.00 0.00 0.00 78 1015.2
20260507023608 61 234 3.5 6.1 0.00 0.00 0.00 77 1015.2
20260507023113 61 262 3.5 7.0 0.00 0.00 0.00 76 1015.2
20260507022616 62 213 3.5 7.0 0.00 0.00 0.00 75 1015.2
20260507022121 63 240 2.6 7.0 0.00 0.00 0.00 73 1015.2
20260507021620 63 232 4.3 7.0 0.00 0.00 0.00 72 1015.2
20260507021121 63 204 2.6 6.1 0.00 0.00 0.00 71 1015.2
20260507020617 64 246 4.3 6.1 0.00 0.00 0.00 69 1015.2
20260507020122 64 223 2.6 6.1 0.00 0.00 0.00 69 1015.2
20260507015615 64 215 2.6 6.1 0.00 0.00 0.00 69 1015.1
20260507015119 65 231 2.6 6.1 0.00 0.00 0.00 68 1015.1
20260507014611 65 244 2.6 5.2 0.00 0.00 0.00 68 1015.1
20260507014114 65 184 3.5 5.2 0.00 0.00 0.00 68 1015.1
20260507013617 65 251 3.5 5.2 0.00 0.00 0.00 69 1015.1
20260507013120 64 238 2.6 7.0 0.00 0.00 0.00 68 1015.1
20260507012627 64 236 4.3 7.8 0.00 0.00 0.00 68 1015.1
20260507012123 65 240 4.3 7.8 0.00 0.00 0.00 67 1015.1
20260507011633 65 254 5.2 7.0 0.00 0.00 0.00 67 1015.1
20260507011115 65 241 4.3 7.0 0.00 0.00 0.00 67 1015.2
20260507010622 65 277 2.6 7.0 0.00 0.00 0.00 66 1015.2
20260507010115 66 236 3.5 8.7 0.00 0.00 0.00 64 1015.2
20260507005618 66 249 5.2 7.8 0.00 0.00 0.00 62 1015.2
20260507005110 67 271 3.5 7.0 0.00 0.00 0.00 63 1015.2
20260507004607 67 221 2.6 8.7 0.00 0.00 0.00 63 1015.2
20260507004114 67 213 4.3 8.7 0.00 0.00 0.00 63 1015.3
20260507003608 66 198 4.3 12.2 0.00 0.00 0.00 63 1015.3
20260507003104 66 285 4.3 12.2 0.00 0.00 0.00 62 1015.3
20260507002610 67 226 4.3 9.6 0.00 0.00 0.00 61 1015.2
20260507002108 67 267 3.5 9.6 0.00 0.00 0.00 61 1015.2
20260507001617 68 254 4.3 8.7 0.00 0.00 0.00 60 1015.2
20260507001116 67 261 4.3 8.7 0.00 0.00 0.00 60 1015.2
20260507000611 67 238 2.6 8.7 0.00 0.00 0.00 59 1015.2
20260507000114 67 214 5.2 9.6 0.00 0.00 0.00 59 1015.2
20260506235609 67 210 5.2 9.6 0.00 0.00 0.00 56 1015.3
20260506235111 68 228 5.2 8.7 0.00 0.00 0.00 56 1015.3
20260506234627 68 246 5.2 11.3 0.00 0.00 0.00 57 1015.3
20260506234116 68 238 5.2 10.4 0.00 0.00 0.00 57 1015.3
20260506233608 68 292 5.2 10.4 0.00 0.00 0.00 57 1015.3
20260506233107 67 286 6.1 12.2 0.00 0.00 0.00 58 1015.3
20260506232603 67 259 7.0 13.9 0.00 0.00 0.00 58 1015.5
20260506232104 68 235 8.7 13.9 0.00 0.00 0.00 58 1015.5
20260506231557 67 244 6.1 12.2 0.00 0.00 0.00 58 1015.5
20260506224655 68 235 6.1 9.6 0.00 0.00 0.00 59 1015.7
20260506224140 68 232 5.2 11.3 0.00 0.00 0.00 59 1016.0
20260506223636 68 254 7.0 11.3 0.00 0.00 0.00 59 1016.0
20260506223133 68 237 6.1 11.3 0.00 0.00 0.00 59 1016.0
20260506222616 68 225 5.2 11.3 0.00 0.00 0.00 59 1016.2
20260506222117 68 230 6.1 12.2 0.00 0.00 0.00 59 1016.2
20260506221627 69 286 7.0 12.2 0.00 0.00 0.00 58 1016.2
20260506221138 69 220 5.2 10.4 0.00 0.00 0.00 58 1016.6
20260506220631 69 238 4.3 12.2 0.00 0.00 0.00 56 1016.6
20260506220116 69 231 6.1 10.4 0.00 0.00 0.00 57 1016.6
20260506215621 69 279 5.2 10.4 0.00 0.00 0.00 57 1016.7
20260506215122 69 320 5.2 10.4 0.00 0.00 0.00 58 1016.7
20260506214632 69 236 6.1 10.4 0.00 0.00 0.00 57 1016.7
20260506214117 69 246 4.3 8.7 0.00 0.00 0.00 57 1016.7
20260506213615 70 213 5.2 10.4 0.00 0.00 0.00 57 1016.7
20260506213135 69 252 4.3 13.0 0.00 0.00 0.00 58 1016.7
20260506212641 69 214 5.2 13.0 0.00 0.00 0.00 57 1016.8
20260506212135 69 213 7.0 12.2 0.00 0.00 0.00 56 1016.8
20260506211617 70 262 3.5 10.4 0.00 0.00 0.00 57 1016.8
20260506211113 70 217 6.1 10.4 0.00 0.00 0.00 56 1017.1
20260506210616 69 233 3.5 10.4 0.00 0.00 0.00 57 1017.1
20260506210110 69 238 6.1 10.4 0.00 0.00 0.00 57 1017.1
20260506205603 69 215 5.2 11.3 0.00 0.00 0.00 56 1017.1
20260506205112 69 250 5.2 11.3 0.00 0.00 0.00 57 1017.1
20260506204614 69 234 7.0 9.6 0.00 0.00 0.00 53 1017.1
20260506204111 69 242 4.3 10.4 0.00 0.00 0.00 55 1017.1
20260506203613 69 237 4.3 10.4 0.00 0.00 0.00 57 1017.1
20260506203113 68 176 5.2 9.6 0.00 0.00 0.00 58 1017.1
20260506202611 68 163 4.3 11.3 0.00 0.00 0.00 56 1017.2
20260506202112 68 207 5.2 12.2 0.00 0.00 0.00 58 1017.2
20260506201610 68 212 5.2 12.2 0.00 0.00 0.00 59 1017.2
20260506201100 68 200 6.1 12.2 0.00 0.00 0.00 57 1017.4
20260506200609 68 240 6.1 12.2 0.00 0.00 0.00 58 1017.4
20260506200113 68 229 5.2 9.6 0.00 0.00 0.00 58 1017.4
20260506195614 68 218 3.5 11.3 0.00 0.00 0.00 58 1017.5
20260506195119 68 240 6.1 11.3 0.00 0.00 0.00 60 1017.5
20260506194627 68 225 5.2 9.6 0.00 0.00 0.00 58 1017.5
20260506194126 68 209 5.2 10.4 0.00 0.00 0.00 59 1017.6
20260506193620 68 201 5.2 10.4 0.00 0.00 0.00 60 1017.6
20260506193113 68 213 4.3 8.7 0.00 0.00 0.00 61 1017.6
20260506192608 67 236 4.3 10.4 0.00 0.00 0.00 61 1017.7
20260506192105 68 164 4.3 11.3 0.00 0.00 0.00 60 1017.7
20260506191600 68 182 6.1 11.3 0.00 0.00 0.00 60 1017.7
20260506191055 68 209 4.3 11.3 0.00 0.00 0.00 60 1017.7
20260506190604 68 239 4.3 9.6 0.00 0.00 0.00 60 1017.7
20260506190100 67 246 4.3 10.4 0.00 0.00 0.00 61 1017.7
20260506185601 67 226 5.2 10.4 0.00 0.00 0.00 61 1017.7
20260506185111 67 313 3.5 10.4 0.00 0.00 0.00 62 1017.7
20260506184612 67 225 3.5 10.4 0.00 0.00 0.00 61 1017.7
20260506184109 67 217 5.2 10.4 0.00 0.00 0.00 61 1017.7
20260506183605 67 202 3.5 10.4 0.00 0.00 0.00 61 1017.7
20260506183113 67 181 6.1 10.4 0.00 0.00 0.00 62 1017.7
20260506182616 67 164 6.1 9.6 0.00 0.00 0.00 62 1017.8
20260506182100 67 200 3.5 9.6 0.00 0.00 0.00 62 1017.8
20260506181608 67 217 5.2 13.0 0.00 0.00 0.00 62 1017.8
20260506181110 67 215 6.1 13.0 0.00 0.00 0.00 62 1017.9
20260506180614 67 279 5.2 9.6 0.00 0.00 0.00 62 1017.9
20260506180116 67 211 3.5 7.8 0.00 0.00 0.00 63 1017.9
20260506175619 67 230 2.6 7.8 0.00 0.00 0.00 63 1018.0
20260506175123 67 190 3.5 7.8 0.00 0.00 0.00 62 1018.0
20260506174625 67 196 3.5 7.8 0.00 0.00 0.00 63 1018.0
20260506174139 67 211 3.5 7.8 0.00 0.00 0.00 62 1017.8
20260506173658 68 261 3.5 8.7 0.00 0.00 0.00 62 1017.8
20260506173200 68 230 4.3 8.7 0.00 0.00 0.00 62 1017.8
20260506172655 68 174 3.5 7.0 0.00 0.00 0.00 62 1017.7
20260506172138 68 198 1.7 6.1 0.00 0.00 0.00 61 1017.7
20260506171634 67 190 3.5 6.1 0.00 0.00 0.00 61 1017.7
20260506171125 67 230 1.7 6.1 0.00 0.00 0.00 62 1017.7
20260506170632 66 153 2.6 6.1 0.00 0.00 0.00 63 1017.7
20260506170153 66 215 0.9 4.3 0.00 0.00 0.00 63 1017.7
20260506165635 65 261 1.7 7.0 0.00 0.00 0.00 62 1017.8
20260506165129 65 188 3.5 8.7 0.00 0.00 0.00 63 1017.8
20260506164635 66 223 3.5 8.7 0.00 0.00 0.00 62 1017.8
20260506164151 66 200 1.7 5.2 0.00 0.00 0.00 63 1017.8
20260506163157 65 150 0.9 5.2 0.00 0.00 0.00 65 1017.8
20260506162653 64 277 2.6 6.1 0.00 0.00 0.00 66 1017.8
20260506162149 64 281 2.6 6.1 0.00 0.00 0.00 67 1017.8
20260506161652 64 254 1.7 4.3 0.00 0.00 0.00 67 1017.8
20260506161150 63 200 0.0 4.3 0.00 0.00 0.00 68 1017.7
20260506160637 63 260 1.7 4.3 0.00 0.00 0.00 68 1017.7
20260506160136 63 261 1.7 4.3 0.00 0.00 0.00 68 1017.7
20260506155620 62 290 0.0 4.3 0.00 0.00 0.00 67 1017.7
20260506155113 62 249 0.9 3.5 0.00 0.00 0.00 67 1017.7
20260506154619 62 217 1.7 3.5 0.00 0.00 0.00 68 1017.7
20260506154116 62 288 1.7 3.5 0.00 0.00 0.00 68 1017.7
20260506153615 61 40 0.9 3.5 0.00 0.00 0.00 67 1017.7
20260506153108 61 10 1.7 3.5 0.00 0.00 0.00 67 1017.7
20260506152601 61 30 1.7 3.5 0.00 0.00 0.00 69 1017.7
20260506152101 60 37 1.7 4.3 0.00 0.00 0.00 70 1017.7
20260506151609 60 9 1.7 4.3 0.00 0.00 0.00 71 1017.7
20260506151115 59 5 1.7 3.5 0.00 0.00 0.00 72 1017.7
20260506150607 58 49 1.7 3.5 0.00 0.00 0.00 73 1017.7
20260506150118 58 339 2.6 4.3 0.00 0.00 0.00 74 1017.7
20260506145602 57 14 1.7 4.3 0.00 0.00 0.00 75 1017.7
20260506145054 57 346 2.6 4.3 0.00 0.00 0.00 76 1017.7
20260506144624 56 53 1.7 4.3 0.00 0.00 0.00 77 1017.7
20260506144111 56 355 2.6 4.3 0.00 0.00 0.00 78 1017.6
20260506143603 55 346 1.7 5.2 0.00 0.00 0.00 79 1017.6
20260506143108 55 360 0.9 4.3 0.00 0.00 0.00 80 1017.6
20260506142607 54 360 2.6 4.3 0.00 0.00 0.00 81 1017.5
20260506142114 54 355 0.9 3.5 0.00 0.00 0.00 82 1017.5
20260506141616 53 340 1.7 3.5 0.00 0.00 0.00 83 1017.5
20260506141108 53 17 1.7 4.3 0.00 0.00 0.00 84 1017.4
20260506140602 52 5 0.9 4.3 0.00 0.00 0.00 85 1017.4
20260506140113 51 11 2.6 4.3 0.00 0.00 0.00 85 1017.4
20260506135616 51 351 0.9 4.3 0.00 0.00 0.00 86 1017.2
20260506135125 51 360 2.6 4.3 0.00 0.00 0.00 86 1017.2
20260506134640 51 5 0.0 2.6 0.00 0.00 0.00 86 1017.2
20260506134144 51 44 0.9 3.5 0.00 0.00 0.00 86 1017.2
20260506133636 51 13 1.7 3.5 0.00 0.00 0.00 86 1017.2
20260506133119 51 46 1.7 3.5 0.00 0.00 0.00 86 1017.2
20260506132623 51 29 0.9 3.5 0.00 0.00 0.00 86 1017.2
20260506132132 51 350 0.9 3.5 0.00 0.00 0.00 86 1017.2
20260506131626 51 360 2.6 3.5 0.00 0.00 0.00 86 1017.2
20260506131129 51 10 0.9 3.5 0.00 0.00 0.00 86 1017.1
20260506130643 51 355 0.9 3.5 0.00 0.00 0.00 86 1017.1
20260506130146 51 24 0.9 4.3 0.00 0.00 0.00 86 1017.1
20260506125155 50 343 1.7 3.5 0.00 0.00 0.00 87 1017.0
20260506124155 50 17 1.7 4.3 0.00 0.00 0.00 86 1016.9
20260506122656 51 360 2.6 4.3 0.00 0.00 0.00 86 1016.7
20260506122151 51 5 3.5 4.3 0.00 0.00 0.00 86 1016.7
20260506121638 51 355 2.6 6.1 0.00 0.00 0.00 86 1016.7
20260506121135 51 13 4.3 6.1 0.00 0.00 0.00 86 1016.6
20260506120616 51 13 3.5 5.2 0.00 0.00 0.00 86 1016.6
20260506120119 51 360 3.5 4.3 0.00 0.00 0.00 86 1016.6
20260506115622 51 40 2.6 4.3 0.00 0.00 0.00 86 1016.6
20260506115125 51 5 1.7 4.3 0.00 0.00 0.00 86 1016.6
20260506114639 51 20 2.6 4.3 0.00 0.00 0.00 86 1016.6
20260506114155 51 360 2.6 4.3 0.00 0.00 0.00 86 1016.4
20260506113143 51 5 2.6 4.3 0.00 0.00 0.00 86 1016.4